greek

WEATHER INFORMATION

english


LGTT 222200Z 00000KT 9999 SCT025 11/07 Q1022 RMK BKN080 BKN180
TAF LGTT 221000Z 2212/2221 22006KT 9999 FEW025 BECMG 2215/2217 FEW020 SCT030

 Print LGTT local weather
 EMY AVIATION
 EMY LGTT
 Forecast LGTT
 EMY LGMG
 EMY LGEL
 EMY LGTG
 EMY LGAV
 EMY LGAT
 Latest METAR Reports (OGIMET)
 Latest TAF Reports (OGIMET)
 Greece Forecast
 www.windyty.com
 www.meteo.gr
 SAT 24h
 UK Met Office
 www.kifissiameteo.gr
 forecast.uoa.gr
 www.ntua.gr/weather/
 www.autorouter.eu/gramet
 http://www.jetplan.com/jeppesen/

Call 210-3533689 to get aviation-weather info for Greece.